TimePDT,TemperatureF,Dew PointF,Humidity,Sea Level PressureIn,VisibilityMPH,Wind Direction,Wind SpeedMPH,Gust SpeedMPH,PrecipitationIn,Events,Conditions,WindDirDegrees,DateUTC
2:53 AM,37.9,35.1,89,30.01,10.0,North,4.6,-,N/A,,Clear,350,2012-10-09 09:53:00
3:53 AM,37.9,34.0,86,30.01,10.0,Calm,Calm,-,N/A,,Clear,0,2012-10-09 10:53:00
4:53 AM,37.0,34.0,89,30.03,10.0,Calm,Calm,-,N/A,,Clear,0,2012-10-09 11:53:00
5:53 AM,36.0,33.1,89,30.04,10.0,North,4.6,-,N/A,,Clear,350,2012-10-09 12:53:00
6:53 AM,35.1,33.1,92,30.06,10.0,NNW,4.6,-,N/A,,Clear,330,2012-10-09 13:53:00
7:53 AM,37.0,33.1,86,30.06,9.0,North,3.5,-,N/A,,Clear,350,2012-10-09 14:53:00
8:53 AM,45.0,36.0,71,30.08,10.0,Calm,Calm,-,N/A,,Clear,0,2012-10-09 15:53:00
9:53 AM,51.1,35.1,54,30.09,10.0,Calm,Calm,-,N/A,,Clear,0,2012-10-09 16:53:00
10:53 AM,57.0,35.1,44,30.09,10.0,Calm,Calm,-,N/A,,Clear,0,2012-10-09 17:53:00
11:53 AM,64.0,35.1,34,30.07,10.0,Calm,Calm,-,N/A,,Clear,0,2012-10-09 18:53:00
12:53 PM,66.0,37.9,36,30.06,10.0,Calm,Calm,-,N/A,,Clear,0,2012-10-09 19:53:00
1:53 PM,70.0,37.0,30,30.04,10.0,Calm,Calm,-,N/A,,Clear,0,2012-10-09 20:53:00
2:53 PM,73.0,37.0,27,30.02,10.0,Calm,Calm,-,N/A,,Clear,0,2012-10-09 21:53:00
3:53 PM,73.0,37.9,28,30.01,10.0,Variable,3.5,-,N/A,,Clear,0,2012-10-09 22:53:00
4:53 PM,73.9,39.0,28,29.99,10.0,North,3.5,-,N/A,,Clear,10,2012-10-09 23:53:00
5:53 PM,70.0,41.0,35,29.99,10.0,NE,3.5,-,N/A,,Clear,50,2012-10-10 00:53:00
6:53 PM,63.0,44.1,50,29.98,10.0,Calm,Calm,-,N/A,,Clear,0,2012-10-10 01:53:00
7:53 PM,55.0,43.0,64,29.98,10.0,NE,3.5,-,N/A,,Clear,50,2012-10-10 02:53:00
8:53 PM,50.0,44.1,80,29.99,8.0,Calm,Calm,-,N/A,,Clear,0,2012-10-10 03:53:00
9:53 PM,48.9,43.0,80,29.99,10.0,North,3.5,-,N/A,,Clear,360,2012-10-10 04:53:00
10:53 PM,45.0,42.1,90,29.98,9.0,Calm,Calm,-,N/A,,Clear,0,2012-10-10 05:53:00
11:53 PM,44.1,41.0,89,29.98,10.0,Calm,Calm,-,N/A,,Clear,0,2012-10-10 06:53:00